Weather reports worldwide

Advertisment
Pershore, United Kingdom (3529): temperature & dewpoint: 23.05.2020 15:00:00 - 29.05.2020 15:00:00 (BST)Pershore, United Kingdom (3529): temperature -20cm & temperature -100cm: 23.05.2020 15:00:00 - 29.05.2020 15:00:00 (BST)Pershore, United Kingdom (3529): wind speed & gusts: 23.05.2020 15:00:00 - 29.05.2020 15:00:00 (BST)Pershore, United Kingdom (3529): wind direction: 23.05.2020 15:00:00 - 29.05.2020 15:00:00 (BST)Pershore, United Kingdom (3529): reduced air pressure: 23.05.2020 15:00:00 - 29.05.2020 15:00:00 (BST)Pershore, United Kingdom (3529): visibility: 23.05.2020 15:00:00 - 29.05.2020 15:00:00 (BST)Pershore, United Kingdom (3529): precipitation: 23.05.2020 15:00:00 - 29.05.2020 15:00:00 (BST)
Date & Time tt [°C] td [°C] tt -20cm [°C] tt -100cm [°C] ff [km/h] ff [kn] fx [km/h] fx [kn] dd ppp [hPa] vv [km] rr [mm]
29.05.2020 15:00:00 24,2 4,5 - - 15 8 - - ESE 1026,2 50 0,0
29.05.2020 14:00:00 23,1 2,6 - - 16 9 - - ESE 1027,1 35 0,0
29.05.2020 13:00:00 22,2 3,6 - - 16 9 - - ESE 1027,8 23 0,0
29.05.2020 12:00:00 22,1 0,6 - - 18 10 - - SE 1028,5 50 0,0
29.05.2020 11:00:00 20,1 3,8 - - 13 7 - - ESE 1029,0 6 0,0
29.05.2020 10:00:00 18,0 5,9 17,7 13,7 11 6 - - E 1029,5 25 0,0
29.05.2020 09:00:00 15,8 6,3 - - 9 5 - - E 1029,7 18 0,0
29.05.2020 08:00:00 14,0 6,0 - - 9 5 - - E 1029,8 26 0,0
29.05.2020 07:00:00 12,0 5,4 - - 8 4 - - E 1030,0 30 0,0
29.05.2020 06:00:00 9,8 4,7 - - 9 5 - - ENE 1030,3 22 0,0
29.05.2020 05:00:00 9,1 4,3 - - 9 5 - - ENE 1030,3 30 0,0
29.05.2020 04:00:00 9,7 4,5 - - 9 5 - - ENE 1030,4 45 0,0
29.05.2020 03:00:00 10,3 4,1 - - 8 4 - - ENE 1030,8 35 0,0
29.05.2020 02:00:00 11,7 3,8 - - 9 5 - - E 1030,8 50 0,0
29.05.2020 01:00:00 12,2 3,3 - - 9 5 - - ESE 1031,0 50 0,0
29.05.2020 00:00:00 14,2 2,3 - - 11 6 - - ESE 1031,0 50 0,0
28.05.2020 23:00:00 15,6 4,7 - - 13 7 - - ESE 1031,0 50 0,0
28.05.2020 22:00:00 16,9 5,9 - - 13 7 - - ESE 1030,8 45 0,0
28.05.2020 21:00:00 18,5 6,0 - - 9 5 - - E 1030,6 50 0,0
28.05.2020 20:00:00 21,3 5,8 - - 13 7 - - E 1030,4 40 0,0
28.05.2020 19:00:00 22,2 5,4 - - 13 7 - - E 1030,4 26 0,0
28.05.2020 18:00:00 23,0 6,1 - - 11 6 - - E 1030,9 27 0,0
28.05.2020 17:00:00 23,3 6,9 - - 9 5 - - E 1031,3 26 0,0
28.05.2020 16:00:00 22,7 6,5 - - 13 7 - - E 1031,9 14 0,0
28.05.2020 15:00:00 22,4 8,2 - - 11 6 - - ESE 1032,6 30 0,0
28.05.2020 14:00:00 21,8 8,3 - - 13 7 - - E 1033,2 19 0,0
28.05.2020 13:00:00 21,2 8,2 - - 11 6 - - E 1033,8 35 0,0
28.05.2020 12:00:00 20,3 9,1 - - 11 6 - - E 1034,3 29 0,0
28.05.2020 11:00:00 19,6 10,1 - - 13 7 - - E 1034,8 16 0,0
28.05.2020 10:00:00 18,1 8,8 17,4 13,4 15 8 - - ESE 1035,3 30 0,0
28.05.2020 09:00:00 16,2 9,3 - - 11 6 - - ESE 1035,8 35 0,0
28.05.2020 08:00:00 14,8 9,5 - - 8 4 - - E 1036,1 21 0,0
28.05.2020 07:00:00 12,9 9,8 - - 8 4 - - E 1036,1 45 0,0
28.05.2020 06:00:00 11,2 9,4 - - 8 4 - - ENE 1036,1 30 0,0
28.05.2020 05:00:00 11,2 9,5 - - 9 5 - - E 1036,1 29 0,0
28.05.2020 04:00:00 11,7 9,5 - - 8 4 - - E 1036,1 35 0,0
28.05.2020 03:00:00 12,4 9,8 - - 8 4 - - ENE 1036,0 35 0,0
28.05.2020 02:00:00 12,9 9,8 - - 8 4 - - ENE 1035,9 30 0,0
28.05.2020 01:00:00 14,0 9,8 - - 9 5 - - ENE 1036,2 45 0,0
28.05.2020 00:00:00 14,9 9,2 - - 9 5 - - ENE 1036,2 35 0,0
27.05.2020 23:00:00 16,7 8,8 - - 13 7 - - ENE 1036,1 50 0,0
27.05.2020 22:00:00 18,4 11,0 - - 13 7 - - E 1035,7 30 0,0
27.05.2020 21:00:00 20,1 8,2 - - 4 2 - - ENE 1034,8 40 0,0
27.05.2020 20:00:00 22,6 6,3 - - 8 4 - - E 1034,4 45 0,0
27.05.2020 19:00:00 23,6 4,1 - - 5 3 - - ENE 1034,3 35 0,0
27.05.2020 18:00:00 24,6 4,4 - - 8 4 - - NNW 1034,5 23 0,0
27.05.2020 17:00:00 23,9 6,4 - - 8 4 - - NNW 1034,9 25 0,0
27.05.2020 16:00:00 24,2 9,1 - - 8 4 - - NNW 1035,3 20 0,0
27.05.2020 15:00:00 24,0 9,5 - - 9 5 - - NW 1035,5 45 0,0
27.05.2020 14:00:00 24,1 11,6 - - 9 5 - - NNW 1035,8 22 0,0
27.05.2020 13:00:00 22,2 11,7 - - 9 5 - - W 1036,3 18 0,0
27.05.2020 12:00:00 20,6 8,2 - - 8 4 - - WNW 1036,7 30 0,0
27.05.2020 11:00:00 18,9 7,1 - - 5 3 - - N 1037,1 20 0,0
27.05.2020 10:00:00 16,8 9,2 16,7 13,2 8 4 - - NNW 1037,3 28 0,0
27.05.2020 09:00:00 16,5 8,3 - - 8 4 - - NW 1037,3 21 0,0
27.05.2020 08:00:00 15,5 8,7 - - 5 3 - - NW 1037,4 14 0,0
27.05.2020 07:00:00 14,7 8,7 - - 5 3 - - NNW 1037,3 22 0,0
27.05.2020 06:00:00 13,2 8,7 - - 4 2 - - NNW 1037,1 20 0,0
27.05.2020 05:00:00 12,3 8,7 - - 4 2 - - NNW 1037,1 40 0,0
27.05.2020 04:00:00 12,9 9,0 - - 5 3 - - NW 1037,0 45 0,0
27.05.2020 03:00:00 12,9 9,8 - - 4 2 - - N 1037,3 40 0,0
27.05.2020 02:00:00 12,5 9,8 - - 4 2 - - NNW 1037,3 45 0,0
27.05.2020 01:00:00 12,6 9,9 - - 5 3 - - NNW 1037,2 45 0,0
27.05.2020 00:00:00 12,8 9,8 - - 4 2 - - NW 1036,9 30 0,0
26.05.2020 23:00:00 15,3 10,1 - - 4 2 - - NNW 1036,8 35 0,0
26.05.2020 22:00:00 17,2 11,0 - - 4 2 - - ENE 1036,5 45 0,0
26.05.2020 21:00:00 19,7 11,4 - - 5 3 - - NNW 1036,0 45 0,0
26.05.2020 20:00:00 21,9 10,9 - - 8 4 - - NNW 1035,8 30 0,0
26.05.2020 19:00:00 22,2 11,0 - - 8 4 - - NNW 1035,7 45 0,0
26.05.2020 18:00:00 22,5 11,1 - - 9 5 - - N 1035,8 40 0,0
26.05.2020 17:00:00 22,6 11,7 - - 8 4 - - NNW 1035,9 40 0,0
26.05.2020 16:00:00 23,8 12,2 - - 5 3 - - WNW 1036,3 40 0,0
26.05.2020 15:00:00 22,0 11,8 - - 8 4 - - NNW 1036,4 40 0,0
26.05.2020 14:00:00 22,6 12,3 - - 9 5 - - WNW 1036,4 30 0,0
26.05.2020 13:00:00 21,6 11,3 - - 9 5 - - NW 1036,6 45 0,0
26.05.2020 12:00:00 19,8 10,4 - - 8 4 - - WSW 1036,8 50 0,0
26.05.2020 11:00:00 20,0 10,1 - - 5 3 - - NW 1036,9 50 0,0
26.05.2020 10:00:00 18,8 7,7 16,0 13,2 8 4 - - NW 1036,9 40 0,0
26.05.2020 09:00:00 17,5 7,2 - - 5 3 - - NNW 1037,1 30 0,0
26.05.2020 08:00:00 14,0 10,5 - - 5 3 - - SSW 1036,8 30 0,0
26.05.2020 07:00:00 12,3 10,2 - - 4 2 - - SW 1036,4 35 0,0
26.05.2020 06:00:00 9,7 8,3 - - 2 1 - - SW 1036,2 35 0,0
26.05.2020 05:00:00 9,6 7,0 - - 2 1 - - NNW 1036,0 40 0,0
26.05.2020 04:00:00 10,2 6,3 - - 2 1 - - SW 1035,6 40 0,0
26.05.2020 03:00:00 9,0 5,8 - - 4 2 - - S 1035,7 50 0,0
26.05.2020 02:00:00 11,4 6,9 - - 4 2 - - WSW 1035,6 45 0,0
26.05.2020 01:00:00 11,6 6,8 - - 4 2 - - SSE 1035,5 45 0,0
26.05.2020 00:00:00 13,8 6,8 - - 5 3 - - WSW 1035,3 40 0,0
25.05.2020 23:00:00 14,9 7,4 - - 5 3 - - W 1035,0 45 0,0
25.05.2020 22:00:00 14,8 6,3 - - 5 3 - - NW 1034,8 45 0,0
25.05.2020 21:00:00 18,1 7,4 - - 8 4 - - WNW 1034,3 45 0,0
25.05.2020 20:00:00 20,9 7,5 - - 9 5 - - WNW 1033,9 30 0,0
25.05.2020 19:00:00 21,6 7,8 - - 11 6 - - W 1033,7 45 0,0
25.05.2020 18:00:00 23,0 6,3 - - 15 8 - - SW 1033,6 26 0,0
25.05.2020 17:00:00 23,5 7,1 - - 13 7 - - WSW 1033,7 40 0,0
25.05.2020 16:00:00 23,1 7,3 - - 11 6 - - WSW 1033,8 50 0,0
25.05.2020 15:00:00 23,3 7,0 - - 11 6 - - W 1034,2 45 0,0
25.05.2020 14:00:00 22,0 6,3 - - 18 10 - - SSW 1034,5 21 0,0
25.05.2020 13:00:00 21,1 6,1 - - 16 9 - - SW 1034,8 30 0,0
25.05.2020 12:00:00 20,3 6,2 - - 18 10 - - SSW 1035,0 30 0,0
25.05.2020 11:00:00 18,6 6,3 - - 13 7 - - SSW 1035,2 20 0,0
25.05.2020 10:00:00 16,8 7,6 15,7 13,0 8 4 - - SSE 1035,5 35 0,0
25.05.2020 09:00:00 14,5 7,1 - - 4 2 - - SSW 1035,7 16 0,0
25.05.2020 08:00:00 12,4 8,8 - - 4 2 - - WNW 1035,8 21 0,0
25.05.2020 07:00:00 8,9 5,6 - - 2 1 - - WNW 1035,9 24 0,0
25.05.2020 06:00:00 4,2 2,9 - - 0 0 - - N 1035,7 27 0,0
25.05.2020 05:00:00 4,0 2,7 - - 2 1 - - ESE 1035,5 40 0,0
25.05.2020 04:00:00 4,2 1,8 - - 4 2 - - WNW 1035,2 45 0,0
25.05.2020 03:00:00 5,6 2,5 - - 2 1 - - W 1035,1 50 0,0
25.05.2020 02:00:00 7,0 2,6 - - 2 1 - - SE 1034,9 50 0,0
25.05.2020 01:00:00 7,2 1,6 - - 5 3 - - SSE 1034,9 50 0,0
25.05.2020 00:00:00 9,7 1,9 - - 2 1 - - SW 1034,8 50 0,0
24.05.2020 23:00:00 11,7 2,4 - - 8 4 - - SW 1034,1 50 0,0
24.05.2020 22:00:00 12,3 1,5 - - 4 2 - - N 1033,5 35 0,0
24.05.2020 21:00:00 15,2 1,3 - - 5 3 - - NW 1032,9 45 0,0
24.05.2020 20:00:00 20,0 2,4 - - 8 4 - - NW 1032,3 45 0,0
24.05.2020 19:00:00 21,2 0,4 - - 13 7 - - WNW 1031,9 40 0,0
24.05.2020 18:00:00 21,8 5,1 - - 13 7 - - WNW 1031,7 28 0,0
24.05.2020 17:00:00 21,5 5,5 - - 16 9 - - WNW 1031,4 35 0,0
24.05.2020 16:00:00 22,5 8,6 - - 13 7 - - WNW 1031,4 22 0,0
24.05.2020 15:00:00 21,3 9,0 - - 15 8 - - W 1031,4 35 0,0
24.05.2020 14:00:00 20,0 8,7 - - 16 9 - - W 1031,4 35 0,0
24.05.2020 13:00:00 19,1 9,0 - - 16 9 - - WNW 1031,4 35 0,0
24.05.2020 12:00:00 18,0 8,9 - - 13 7 - - WNW 1031,0 23 0,0
24.05.2020 11:00:00 16,4 8,5 - - 16 9 - - W 1030,8 29 0,0
24.05.2020 10:00:00 16,2 9,2 15,5 13,0 21 11 - - W 1030,5 24 0,0
24.05.2020 09:00:00 14,2 8,9 - - 15 8 - - W 1030,4 19 0,0
24.05.2020 08:00:00 13,5 8,7 - - 13 7 - - W 1029,8 18 0,0
24.05.2020 07:00:00 13,3 8,7 - - 13 7 - - WSW 1028,9 17 0,0
24.05.2020 06:00:00 12,9 8,7 - - 13 7 - - WSW 1028,4 15 0,0
24.05.2020 05:00:00 12,5 8,7 - - 15 8 - - SW 1027,6 17 0,0
24.05.2020 04:00:00 11,9 8,4 - - 13 7 - - SW 1027,3 20 0,0
24.05.2020 03:00:00 11,6 7,9 - - 13 7 - - SW 1027,0 16 0,0
24.05.2020 02:00:00 11,0 7,2 - - 15 8 - - SW 1026,7 19 0,0
24.05.2020 01:00:00 11,3 6,8 - - 13 7 - - SW 1026,5 19 0,0
24.05.2020 00:00:00 11,4 6,8 - - 16 9 - - SSW 1026,3 19 0,0
23.05.2020 23:00:00 11,3 6,8 - - 18 10 - - SW 1025,7 17 0,0
23.05.2020 22:00:00 12,6 5,9 - - 16 9 - - WSW 1025,3 28 0,0
23.05.2020 21:00:00 13,0 6,5 - - 13 7 - - WSW 1024,6 24 0,0
23.05.2020 20:00:00 13,0 7,5 - - 13 7 - - SW 1024,4 17 0,0
23.05.2020 19:00:00 14,4 7,9 - - 16 9 48 26 W 1023,8 20 0,0
23.05.2020 18:00:00 14,7 6,4 - - 24 13 46 25 WSW 1022,9 26 0,0
23.05.2020 17:00:00 14,4 7,0 - - 29 16 52 28 WSW 1022,6 26 0,6
23.05.2020 16:00:00 14,4 8,7 - - 24 13 50 27 W 1022,0 24 0,0
23.05.2020 15:00:00 16,8 3,8 - - 26 14 50 27 W 1021,0 35 0,0

tt = temperature
td = dewpoint
tt -20cm = temperature -20cm
tt -100cm = temperature -100cm
ff = wind speed
fx = gusts
dd = wind direction
ppp = reduced air pressure
vv = visibility
rr = precipitation

Next stations